Hourly Data Report for June 15, 2020

TORONTO CITY
ONTARIO
Current Station Operator: ECCC - MSC

43°40'00.000" N
79°24'00.000" W
112.50 m
6158355
71508
XTO

Download Data

Hourly Data (June 2020)
Hourly Data Report for June 15, 2020
TIME
LST
Temp Definition
°C
Dew Point Definition
°C
Rel Hum Definition
%
Precip. Amount Definition
mm

Wind Dir Definition
10's deg

Wind Spd Definition
km/h
Visibility Definition
km
Stn Press Definition
kPa
Hmdx Definition


Wind Chill Definition


Weather Definition


00:00 12.8 1.3 45 0.0       101.65     LegendNANA
01:00 13.6 1.2 43 0.0       101.66     LegendNANA
02:00 13.2 1.0 43 0.0       101.67     LegendNANA
03:00 12.8 1.5 46 0.0       101.67     LegendNANA
04:00 12.7 2.0 48 0.0       101.70     LegendNANA
05:00 12.3 2.3 51 0.0       101.73     LegendNANA
06:00 12.7 2.7 50 0.0       101.74     LegendNANA
07:00 14.8 4.3 49 0.0       101.79     LegendNANA
08:00 17.3 3.1 39 0.0       101.86     LegendNANA
09:00 18.5 3.3 36 0.0       101.86     LegendNANA
10:00 19.2 5.0 39 0.0       101.86     LegendNANA
11:00 18.8 3.4 36 1.1       101.85     LegendNANA
12:00 18.6 4.1 38 0.0       101.84     LegendNANA
13:00 19.7 3.3 34 0.0       101.81     LegendNANA
14:00 19.7 1.2 29 0.0       101.75     LegendNANA
15:00 20.3 0.5 27 0.0       101.72     LegendNANA
16:00 20.2 -0.5 25 0.0       101.70     LegendNANA
17:00 20.0 0.4 27 0.0       101.67     LegendNANA
18:00 19.3 1.2 30 0.0       101.61     LegendNANA
19:00 18.6 0.6 30 0.0       101.60     LegendNANA
20:00 17.6 0.3 31 0.0       101.58     LegendNANA
21:00 16.4 0.7 34 0.0       101.61     LegendNANA
22:00 15.3 1.7 40 0.0       101.58     LegendNANA
23:00 15.5 2.4 41 0.0       101.59     LegendNANA

Notes on Data Quality.

Legend

  • E = Estimated
  • M = Missing
  • NA = Not Available*
  • [empty] = Indicates an unobserved value
Date modified: